User: anonymous   Login
Location: Young's Pond
(41.2695°N, 72.7766°W)
Time: 03:38:36
(UTC-04:00)
Language:

Spot 4 - Orbit

View from above orbital plane
View from above orbital plane
View from above satellite
View from above satellite

Ground track
Ground track

The orbit data is extracted from the following two-line orbital elements,

1 25260U 98017A   15239.39968063  .00000098  00000-0  34655-4 0  9998
2 25260 098.4123 310.9487 0013930 135.7433 224.4879 14.53305092906012
Epoch (UTC): 27 August 2015 09:35:32
Eccentricity: 0.0013930
inclination: 98.4123°
perigee height: 705 km
apogee height: 725 km
right ascension of ascending node: 310.9487°
argument of perigee: 135.7433°
revolutions per day: 14.53305092
mean anomaly at epoch: 224.4879°
orbit number at epoch: 90601

The dashed part of the orbit path shows where the satellite is in the earth's shadow,  

DLR